Location: Newark
(52.4787°S, 179.0532°W)
Time: 14:39:37
(UTC+00:00)

Transit 2A Rocket - Pass Details

Date: 24 November 2019
Orbit: 594 x 909 km, 66.7° (Epoch: 13 December)

Event Time Altitude Azimuth Distance (km) Brightness Sun altitude
Rises 19:51:34 0° 348° (NNW) 3,334 8.3 35.6°
Reaches altitude 10° 19:54:02 10° 355° (N) 2,453 7.8 36.0°
Maximum altitude 19:59:23 42° 64° (ENE) 1,238 8.5 36.8°
Drops below altitude 10° 20:05:05 10° 132° (SE) 2,609 8.2 37.6°
Sets 20:07:46 0° 138° (SE) 3,570 8.7 38.0°
